Location: Glencliff
(36.1226°N, 86.7183°W)
Time: 16:05:31
(UTC+00:00)

Cosmos 2084 Rocket - Pass Details

Date: 25 August 2019
Orbit: 572 x 610 km, 62.8° (Epoch: 22 October)

Event Time Altitude Azimuth Distance (km) Brightness Sun altitude
Exits shadow 09:33:21 31° 292° (WNW) 1,068 4.4 -19.4°
Maximum altitude 09:33:57 33° 309° (NW) 1,037 4.5 -19.3°
Drops below altitude 10° 09:37:59 10° 14° (NNE) 1,966 6.7 -18.6°
Sets 09:40:27 0° 24° (NNE) 2,873 7.9 -18.2°
